Location: Cuiry
(49.3858°N, 3.7708°E)
Time: 03:55:20
(UTC+00:00)

Cosmos 968 Rocket - Visible Passes

Search period start: 21 April 2026 00:00
Search period end: 01 May 2026 00:00
Orbit: 736 x 765 km, 74.0° (Epoch: 20 April)

Date Brightness Start Highest point End Pass type
(mag) Time Alt. Az. Time Alt. Az. Time Alt. Az.
21 Apr 5.6 21:23:23 10° N 21:26:34 16° NE 21:28:59 12° ENE visible
21 Apr 3.6 23:03:58 10° NNW 23:08:52 72° NNE 23:08:52 72° NNE visible
22 Apr 5.5 00:46:54 10° NW 00:48:45 16° WNW 00:48:45 16° WNW visible
22 Apr 5.9 20:42:30 10° NNE 20:43:37 11° NE 20:44:44 10° NE visible
22 Apr 4.1 22:21:45 10° NNW 22:26:46 44° ENE 22:27:16 43° ENE visible
23 Apr 4.9 00:03:45 10° NW 00:07:09 28° WNW 00:07:09 28° WNW visible
23 Apr 4.9 21:39:42 10° N 21:44:10 28° NE 21:45:41 24° E visible
23 Apr 4.0 23:21:04 10° NNW 23:25:34 51° W 23:25:34 51° W visible
24 Apr 5.5 20:57:51 10° N 21:01:24 18° NE 21:04:07 13° E visible
24 Apr 3.3 22:38:38 10° NNW 22:43:54 87° ENE 22:44:00 85° ESE visible
25 Apr 5.6 00:21:59 10° WNW 00:23:53 14° W 00:23:53 14° W visible
25 Apr 5.8 20:16:32 10° NNE 20:18:29 12° NE 20:20:26 10° ENE visible
25 Apr 3.9 21:56:23 10° NNW 22:01:29 51° ENE 22:02:27 45° E visible
25 Apr 4.9 23:38:36 10° NW 23:42:21 26° W 23:42:21 26° W visible
26 Apr 4.7 21:14:16 10° N 21:18:56 31° NE 21:20:55 24° E visible
26 Apr 4.0 22:55:49 10° NNW 23:00:48 46° WSW 23:00:49 46° WSW visible
27 Apr 5.3 20:32:22 10° N 20:36:13 20° NE 20:39:25 12° E visible
27 Apr 3.4 22:13:19 10° NNW 22:18:35 81° WSW 22:19:19 66° S visible
27 Apr 5.7 23:57:15 10° WNW 23:59:12 12° W 23:59:12 12° W visible
28 Apr 5.7 19:50:49 10° N 19:53:21 13° NE 19:55:52 10° ENE visible
28 Apr 3.7 21:31:01 10° NNW 21:36:12 59° ENE 21:37:49 41° ESE visible
28 Apr 5.1 23:13:28 10° NW 23:17:29 23° W 23:17:43 22° WSW visible
29 Apr 4.4 20:48:52 10° N 20:53:41 36° NE 20:56:22 22° ESE visible
29 Apr 4.3 22:30:35 10° NW 22:35:25 39° WSW 22:36:15 37° SW visible
30 Apr 5.1 20:06:54 10° N 20:11:01 23° NE 20:14:55 11° E visible
30 Apr 3.6 21:48:01 10° NNW 21:53:14 70° WSW 21:54:49 44° S visible
30 Apr 5.9 23:33:06 10° W 23:33:55 10° W 23:34:43 10° W visible
